Pawtucket, RI

9:32 PM EDT on September 19, 2017 (GMT -0400)
North Central State

Weather History for KSFZ - June, 2014

Change the Weather History Date:

Wednesday, June 4, 2014

  Actual Average Record
Temperature  
Mean Temperature 60 °F -  
Max Temperature 68 °F 68 °F 84 °F (2005)
Min Temperature 51 °F 49 °F 42 °F (1998)
Degree Days  
Heating Degree Days 6    
Growing Degree Days 10 (Base 50)    
Moisture  
Dew Point 53 °F    
Average Humidity 78    
Maximum Humidity 88    
Minimum Humidity 55    
Precipitation  
Precipitation 0.16 in - - ()
Sea Level Pressure  
Sea Level Pressure 29.85 in    
Wind  
Wind Speed 3 mph (ESE)    
Max Wind Speed 8 mph    
Max Gust Speed -    
Visibility 9 miles    
Events      
Averages and records for this station are not official NWS values.
T = Trace of Precipitation, MM = Missing Value Source: NWS Daily Summary

Daily Weather History Graph

Daily Weather History Graph

Search for Another Location

Airport or City:

Trip Planner

Search our weather history database for the weather conditions in past years. The results will help you decide how hot, cold, wet, or windy it might be!

Date:

Astronomy

Jun. 04, 2014 Rise Set
Actual Time 5:11 AM EDT 8:17 PM EDT
Civil Twilight 4:38 AM EDT 8:50 PM EDT
Nautical Twilight 3:55 AM EDT 9:34 PM EDT
Astronomical Twilight 3:03 AM EDT 10:25 PM EDT
Moon 11:32 AM EDT (6/4) 12:10 AM EDT (6/4)
Length of Visible Light 16h 12m
Length of Day
15h 05m
Waxing Crescent, 39% of the Moon is Illuminated
Jun 4
Waxing Crescent
Jun 5
First Quarter
Jun 13
Full
Jun 19
Last Quarter
Jun 27
New

Hourly Weather History & Observations

Time (EDT) Temp. Dew Point Humidity Pressure Visibility Wind Dir Wind Speed Gust Speed Precip Events Conditions
12:15 AM 57.2 °F 42.8 °F 59% 29.92 in 10.0 mi Calm Calm - N/A   Overcast
12:35 AM 55.4 °F 42.8 °F 63% 29.91 in 10.0 mi Calm Calm - N/A   Mostly Cloudy
1:15 AM 57.2 °F 41.0 °F 55% 29.90 in 10.0 mi East 4.6 mph - N/A   Mostly Cloudy
1:35 AM 55.4 °F 42.8 °F 63% 29.90 in 10.0 mi Calm Calm - N/A   Mostly Cloudy
1:55 AM 55.4 °F 44.6 °F 67% 29.89 in 10.0 mi Calm Calm - N/A   Overcast
2:15 AM 55.4 °F 46.4 °F 72% 29.89 in 10.0 mi Calm Calm - N/A   Overcast
2:35 AM 55.4 °F 46.4 °F 72% 29.89 in 3.0 mi NE 3.5 mph - 0.11 in   Overcast
2:55 AM 53.6 °F 46.4 °F 77% 29.88 in 9.0 mi NNE 8.1 mph - 0.15 in   Mostly Cloudy
3:15 AM 53.6 °F 48.2 °F 82% 29.88 in 10.0 mi ENE 4.6 mph - N/A   Overcast
3:35 AM 53.6 °F 48.2 °F 82% 29.88 in 10.0 mi NE 4.6 mph - N/A   Overcast
3:55 AM 53.6 °F 48.2 °F 82% 29.87 in 10.0 mi ENE 6.9 mph - N/A   Overcast
4:15 AM 53.6 °F 48.2 °F 82% 29.87 in 10.0 mi NE 4.6 mph - N/A   Overcast
4:35 AM 53.6 °F 48.2 °F 82% 29.88 in 10.0 mi ESE 4.6 mph - N/A   Overcast
4:55 AM 53.6 °F 46.4 °F 77% 29.88 in 10.0 mi ENE 3.5 mph - N/A   Overcast
5:15 AM 53.6 °F 48.2 °F 82% 29.89 in 10.0 mi Calm Calm - N/A   Overcast
5:35 AM 51.8 °F 46.4 °F 82% 29.89 in 10.0 mi Calm Calm - N/A   Mostly Cloudy
5:55 AM 53.6 °F 48.2 °F 82% 29.90 in 10.0 mi North 5.8 mph - N/A   Mostly Cloudy
6:15 AM 53.6 °F 48.2 °F 82% 29.90 in 10.0 mi Calm Calm - N/A   Overcast
6:35 AM 53.6 °F 48.2 °F 82% 29.89 in 10.0 mi East 5.8 mph - N/A   Mostly Cloudy
6:55 AM 55.4 °F 50.0 °F 82% 29.88 in 10.0 mi East 5.8 mph - N/A   Scattered Clouds
7:15 AM 53.6 °F 48.2 °F 82% 29.89 in 10.0 mi North 8.1 mph - 0.01 in   Overcast
7:35 AM 53.6 °F 50.0 °F 88% 29.90 in 10.0 mi NNE 4.6 mph - 0.01 in   Overcast
7:55 AM 55.4 °F 50.0 °F 82% 29.90 in 10.0 mi Calm Calm - 0.01 in   Overcast
8:15 AM 55.4 °F 51.8 °F 88% 29.89 in 10.0 mi NE 4.6 mph - N/A   Overcast
8:35 AM 55.4 °F 50.0 °F 82% 29.91 in 10.0 mi NE 4.6 mph - N/A   Overcast
8:55 AM 55.4 °F 51.8 °F 88% 29.90 in 10.0 mi ENE 4.6 mph - N/A   Overcast
9:15 AM 57.2 °F 51.8 °F 82% 29.91 in 10.0 mi Calm Calm - N/A   Overcast
9:35 AM 57.2 °F 51.8 °F 82% 29.91 in 10.0 mi Calm Calm - N/A   Overcast
9:55 AM 57.2 °F 51.8 °F 82% 29.91 in 10.0 mi Calm Calm - N/A   Overcast
10:15 AM 57.2 °F 53.6 °F 88% 29.90 in 10.0 mi Calm Calm - N/A   Overcast
10:35 AM 59.0 °F 51.8 °F 77% 29.89 in 10.0 mi ESE 3.5 mph - N/A   Overcast
10:55 AM 60.8 °F 53.6 °F 77% 29.88 in 10.0 mi ESE 4.6 mph - N/A   Overcast
11:15 AM 60.8 °F 53.6 °F 77% 29.88 in 10.0 mi SE 3.5 mph - N/A   Overcast
11:35 AM 62.6 °F 55.4 °F 77% 29.87 in 10.0 mi Calm Calm - N/A   Overcast
11:55 AM 62.6 °F 55.4 °F 77% 29.86 in 10.0 mi Calm Calm - N/A   Overcast
12:15 PM 64.4 °F 55.4 °F 73% 29.86 in 10.0 mi ENE 4.6 mph - N/A   Overcast
12:35 PM 66.2 °F 57.2 °F 73% 29.86 in 10.0 mi ESE 3.5 mph - N/A   Mostly Cloudy
12:55 PM 66.2 °F 57.2 °F 73% 29.85 in 10.0 mi SSE 5.8 mph - N/A   Mostly Cloudy
1:15 PM 66.2 °F 57.2 °F 73% 29.85 in 10.0 mi ESE 6.9 mph - N/A   Overcast
1:35 PM 68.0 °F 57.2 °F 68% 29.84 in 10.0 mi SSE 6.9 mph - N/A   Overcast
1:55 PM 66.2 °F 57.2 °F 73% 29.84 in 10.0 mi ESE 8.1 mph - N/A   Overcast
2:15 PM 66.2 °F 57.2 °F 73% 29.84 in 10.0 mi SE 4.6 mph - N/A   Overcast
2:35 PM 66.2 °F 55.4 °F 68% 29.83 in 10.0 mi SE 6.9 mph - N/A   Overcast
2:55 PM 66.2 °F 57.2 °F 73% 29.83 in 10.0 mi SE 5.8 mph - N/A   Overcast
3:15 PM 68.0 °F 57.2 °F 68% 29.82 in 10.0 mi SSW 4.6 mph - N/A   Overcast
3:35 PM 66.2 °F 57.2 °F 73% 29.82 in 10.0 mi SSE 5.8 mph - N/A   Overcast
3:55 PM 66.2 °F 57.2 °F 73% 29.81 in 10.0 mi SSE 4.6 mph - N/A   Overcast
4:15 PM 66.2 °F 57.2 °F 73% 29.81 in 10.0 mi South 6.9 mph - N/A   Overcast
4:35 PM 64.4 °F 55.4 °F 73% 29.81 in 10.0 mi Calm Calm - N/A   Overcast
4:55 PM 64.4 °F 57.2 °F 77% 29.81 in 10.0 mi SE 4.6 mph - N/A   Overcast
5:15 PM 64.4 °F 57.2 °F 77% 29.81 in 10.0 mi SE 4.6 mph - N/A   Mostly Cloudy
5:35 PM 64.4 °F 57.2 °F 77% 29.80 in 10.0 mi SE 3.5 mph - N/A   Overcast
5:55 PM 64.4 °F 57.2 °F 77% 29.79 in 10.0 mi SSE 4.6 mph - N/A   Overcast
6:15 PM 64.4 °F 57.2 °F 77% 29.80 in 10.0 mi SSE 3.5 mph - N/A   Overcast
6:35 PM 64.4 °F 57.2 °F 77% 29.80 in 10.0 mi SSE 3.5 mph - N/A   Overcast
6:55 PM 62.6 °F 57.2 °F 82% 29.80 in 10.0 mi SE 3.5 mph - N/A   Overcast
7:15 PM 62.6 °F 57.2 °F 82% 29.81 in 10.0 mi South 3.5 mph - N/A   Overcast
7:35 PM 62.6 °F 57.2 °F 82% 29.81 in 10.0 mi Calm Calm - N/A   Overcast
7:55 PM 62.6 °F 55.4 °F 77% 29.81 in 10.0 mi SE 3.5 mph - N/A   Overcast
8:15 PM 60.8 °F 55.4 °F 82% 29.80 in 10.0 mi Calm Calm - N/A   Overcast
8:35 PM 60.8 °F 55.4 °F 82% 29.80 in 10.0 mi Calm Calm - N/A   Overcast
8:55 PM 60.8 °F 55.4 °F 82% 29.80 in 10.0 mi Calm Calm - N/A   Overcast
9:15 PM 60.8 °F 55.4 °F 82% 29.81 in 10.0 mi Calm Calm - N/A   Overcast
9:35 PM 60.8 °F 55.4 °F 82% 29.81 in 8.0 mi Calm Calm - N/A   Overcast
9:55 PM 60.8 °F 55.4 °F 82% 29.81 in 2.5 mi Calm Calm - N/A   Overcast
10:15 PM 60.8 °F 57.2 °F 88% 29.82 in 1.5 mi South 3.5 mph - N/A   Overcast
10:35 PM 60.8 °F 55.4 °F 82% 29.82 in 3.0 mi Calm Calm - N/A   Overcast
11:15 PM 60.8 °F 55.4 °F 82% 29.81 in 2.0 mi Calm Calm - N/A   Overcast
11:35 PM 60.8 °F 55.4 °F 82% 29.82 in 1.0 mi Calm Calm - N/A   Overcast
11:55 PM 60.8 °F 55.4 °F 82% 29.81 in 0.8 mi Calm Calm - N/A   Overcast